| time (UTC) | temp F | wind direction | speed knots | gust knots | rain 1hr in | rain 24hr in | rain mn in | humidity % | barometer mb |
| 20260505102121 | 56 | 327 | 0.0 | 1.7 | 0.00 | 0.00 | 0.00 | 75 | 1009.2 |
| 20260505101121 | 55 | 184 | 0.9 | 3.5 | 0.00 | 0.00 | 0.00 | 76 | 1009.2 |
| 20260505100121 | 55 | 192 | 2.6 | 4.3 | 0.00 | 0.00 | 0.00 | 79 | 1009.1 |
| 20260505095121 | 54 | 226 | 0.9 | 3.5 | 0.00 | 0.00 | 0.00 | 80 | 1009.0 |
| 20260505094142 | 55 | 156 | 0.9 | 3.5 | 0.00 | 0.00 | 0.00 | 79 | 1009.0 |
| 20260505093121 | 54 | 356 | 2.6 | 5.2 | 0.00 | 0.00 | 0.00 | 80 | 1009.0 |
| 20260505092121 | 54 | 89 | 0.0 | 2.6 | 0.00 | 0.00 | 0.00 | 81 | 1008.9 |
| 20260505091142 | 55 | 202 | 0.9 | 3.5 | 0.00 | 0.00 | 0.00 | 81 | 1008.9 |
| 20260505090121 | 55 | 219 | 0.9 | 2.6 | 0.00 | 0.00 | 0.00 | 80 | 1008.9 |
| 20260505085121 | 55 | 178 | 0.9 | 3.5 | 0.00 | 0.00 | 0.00 | 83 | 1008.8 |
| 20260505084142 | 55 | 145 | 0.0 | 1.7 | 0.00 | 0.00 | 0.00 | 83 | 1008.8 |
| 20260505083121 | 56 | 270 | 0.0 | 0.9 | 0.00 | 0.00 | 0.00 | 82 | 1008.9 |
| 20260505082121 | 56 | 176 | 0.0 | 1.7 | 0.00 | 0.00 | 0.00 | 82 | 1008.8 |
| 20260505081142 | 56 | 30 | 0.0 | 1.7 | 0.00 | 0.00 | 0.00 | 81 | 1008.8 |
| 20260505080121 | 56 | 166 | 0.0 | 0.9 | 0.00 | 0.00 | 0.00 | 79 | 1008.9 |
| 20260505075142 | 57 | 158 | 0.0 | 1.7 | 0.00 | 0.00 | 0.00 | 80 | 1008.7 |
| 20260505074121 | 57 | 153 | 0.9 | 2.6 | 0.00 | 0.00 | 0.00 | 78 | 1008.7 |
| 20260505073121 | 59 | 157 | 0.9 | 2.6 | 0.00 | 0.00 | 0.00 | 73 | 1008.6 |
| 20260505072143 | 59 | 6 | 0.0 | 1.7 | 0.00 | 0.00 | 0.00 | 70 | 1008.6 |
| 20260505071122 | 59 | 243 | 0.0 | 2.6 | 0.00 | 0.00 | 0.00 | 69 | 1008.8 |
| 20260505070121 | 60 | 255 | 0.0 | 0.9 | 0.00 | 0.00 | 0.00 | 66 | 1008.7 |
| 20260505065121 | 60 | 107 | 0.0 | 0.9 | 0.00 | 0.00 | 0.00 | 65 | 1008.9 |
| 20260505064121 | 60 | 51 | 0.0 | 0.9 | 0.00 | 0.00 | 0.00 | 64 | 1008.9 |
| 20260505063121 | 59 | 256 | 0.0 | 1.7 | 0.00 | 0.00 | 0.00 | 65 | 1008.9 |
| 20260505062121 | 58 | 35 | 0.0 | 0.9 | 0.00 | 0.00 | 0.00 | 65 | 1008.9 |
| 20260505061121 | 58 | 144 | 0.0 | 0.0 | 0.00 | 0.00 | 0.00 | 65 | 1008.9 |
| 20260505060121 | 58 | 23 | 0.0 | 0.9 | 0.00 | 0.00 | 0.00 | 65 | 1009.0 |
| 20260505055121 | 57 | 182 | 0.0 | 1.7 | 0.00 | 0.00 | 0.00 | 66 | 1008.9 |
| 20260505054121 | 56 | 110 | 0.0 | 1.7 | 0.00 | 0.00 | 0.00 | 67 | 1008.9 |
| 20260505053142 | 56 | 210 | 0.0 | 1.7 | 0.00 | 0.00 | 0.00 | 67 | 1008.9 |
| 20260505052142 | 56 | 326 | 0.9 | 1.7 | 0.00 | 0.00 | 0.00 | 66 | 1009.0 |
| 20260505051121 | 56 | 175 | 0.0 | 1.7 | 0.00 | 0.00 | 0.00 | 65 | 1009.0 |
| 20260505050121 | 57 | 148 | 0.0 | 1.7 | 0.00 | 0.00 | 0.00 | 63 | 1008.9 |
| 20260505041121 | 60 | 154 | 0.0 | 1.7 | 0.00 | 0.00 | 0.00 | 55 | 1008.9 |
| 20260505040122 | 61 | 237 | 0.9 | 3.5 | 0.00 | 0.00 | 0.00 | 53 | 1008.8 |
| 20260505035121 | 61 | 248 | 0.9 | 3.5 | 0.00 | 0.00 | 0.00 | 52 | 1008.4 |
| 20260505034143 | 62 | 244 | 0.9 | 3.5 | 0.00 | 0.00 | 0.00 | 50 | 1008.5 |
| 20260505033122 | 62 | 174 | 0.0 | 1.7 | 0.00 | 0.00 | 0.00 | 49 | 1008.7 |
| 20260505032122 | 62 | 272 | 0.9 | 3.5 | 0.00 | 0.00 | 0.00 | 48 | 1008.8 |
| 20260505031122 | 62 | 94 | 0.9 | 2.6 | 0.00 | 0.00 | 0.00 | 48 | 1008.8 |
| 20260505030122 | 62 | 251 | 0.0 | 2.6 | 0.00 | 0.00 | 0.00 | 50 | 1008.6 |
| 20260505025122 | 62 | 270 | 0.0 | 0.9 | 0.00 | 0.00 | 0.00 | 50 | 1008.7 |
| 20260505024121 | 62 | 138 | 0.0 | 1.7 | 0.00 | 0.00 | 0.00 | 49 | 1008.7 |
| 20260505023143 | 61 | 33 | 0.9 | 2.6 | 0.00 | 0.00 | 0.00 | 50 | 1008.4 |
| 20260505022122 | 61 | 56 | 0.0 | 1.7 | 0.00 | 0.00 | 0.00 | 50 | 1008.7 |
| 20260505021122 | 61 | 209 | 0.9 | 1.7 | 0.00 | 0.00 | 0.00 | 50 | 1008.9 |
| 20260505020122 | 61 | 311 | 0.9 | 2.6 | 0.00 | 0.00 | 0.00 | 49 | 1009.0 |
| 20260505015121 | 61 | 53 | 0.9 | 1.7 | 0.00 | 0.00 | 0.00 | 50 | 1009.0 |
| 20260505014122 | 62 | 154 | 0.0 | 1.7 | 0.00 | 0.00 | 0.00 | 49 | 1008.9 |
| 20260505013122 | 62 | 138 | 0.9 | 1.7 | 0.00 | 0.00 | 0.00 | 47 | 1008.7 |
| 20260505012122 | 62 | 49 | 0.0 | 1.7 | 0.00 | 0.00 | 0.00 | 48 | 1008.7 |
| 20260505011122 | 62 | 15 | 0.0 | 1.7 | 0.00 | 0.00 | 0.00 | 48 | 1008.7 |
| 20260505010122 | 61 | 336 | 0.9 | 1.7 | 0.00 | 0.00 | 0.00 | 50 | 1008.6 |
| 20260505005122 | 62 | 227 | 0.0 | 0.9 | 0.00 | 0.00 | 0.00 | 49 | 1008.4 |
| 20260505004122 | 63 | 135 | 0.0 | 0.9 | 0.00 | 0.00 | 0.00 | 47 | 1008.4 |
| 20260505003122 | 64 | 132 | 0.0 | 1.7 | 0.00 | 0.00 | 0.00 | 45 | 1008.4 |
| 20260505002120 | 65 | 89 | 0.0 | 1.7 | 0.00 | 0.00 | 0.00 | 42 | 1008.3 |
| 20260505001121 | 67 | 251 | 0.0 | 1.7 | 0.00 | 0.00 | 0.00 | 41 | 1008.2 |
| 20260505000120 | 67 | 241 | 1.7 | 4.3 | 0.00 | 0.00 | 0.00 | 38 | 1008.1 |
| 20260504235120 | 68 | 260 | 0.9 | 4.3 | 0.00 | 0.00 | 0.00 | 38 | 1008.2 |
| 20260504234142 | 68 | 252 | 0.9 | 2.6 | 0.00 | 0.00 | 0.00 | 38 | 1008.1 |
| 20260504233142 | 69 | 258 | 1.7 | 3.5 | 0.00 | 0.00 | 0.00 | 37 | 1008.0 |
| 20260504232121 | 69 | 266 | 1.7 | 5.2 | 0.00 | 0.00 | 0.00 | 36 | 1008.0 |
| 20260504231120 | 70 | 236 | 2.6 | 6.1 | 0.00 | 0.00 | 0.00 | 36 | 1008.1 |
| 20260504230121 | 70 | 256 | 2.6 | 6.1 | 0.00 | 0.00 | 0.00 | 36 | 1008.1 |
| 20260504225121 | 70 | 238 | 1.7 | 3.5 | 0.00 | 0.00 | 0.00 | 36 | 1008.1 |
| 20260504224121 | 70 | 216 | 3.5 | 9.6 | 0.00 | 0.00 | 0.00 | 35 | 1008.0 |
| 20260504223121 | 71 | 257 | 2.6 | 5.2 | 0.00 | 0.00 | 0.00 | 34 | 1008.1 |
| 20260504222121 | 71 | 257 | 1.7 | 7.0 | 0.00 | 0.00 | 0.00 | 34 | 1008.2 |
| 20260504221121 | 71 | 265 | 4.3 | 9.6 | 0.00 | 0.00 | 0.00 | 34 | 1008.1 |
| 20260504220142 | 71 | 210 | 3.5 | 8.7 | 0.00 | 0.00 | 0.00 | 34 | 1008.1 |
| 20260504215121 | 71 | 260 | 2.6 | 5.2 | 0.00 | 0.00 | 0.00 | 33 | 1008.2 |
| 20260504214120 | 71 | 205 | 2.6 | 7.0 | 0.00 | 0.00 | 0.00 | 34 | 1008.2 |
| 20260504213142 | 71 | 232 | 3.5 | 7.0 | 0.00 | 0.00 | 0.00 | 34 | 1008.2 |
| 20260504212121 | 72 | 265 | 2.6 | 5.2 | 0.00 | 0.00 | 0.00 | 34 | 1008.3 |
| 20260504211121 | 71 | 248 | 2.6 | 5.2 | 0.00 | 0.00 | 0.00 | 34 | 1008.2 |
| 20260504210121 | 71 | 210 | 3.5 | 7.0 | 0.00 | 0.00 | 0.00 | 33 | 1008.3 |
| 20260504205121 | 71 | 229 | 4.3 | 12.2 | 0.00 | 0.00 | 0.00 | 34 | 1008.3 |
| 20260504204121 | 72 | 265 | 3.5 | 7.0 | 0.00 | 0.00 | 0.00 | 34 | 1008.2 |
| 20260504203121 | 71 | 206 | 3.5 | 9.6 | 0.00 | 0.00 | 0.00 | 34 | 1008.1 |
| 20260504202121 | 71 | 226 | 3.5 | 6.1 | 0.00 | 0.00 | 0.00 | 35 | 1008.4 |
| 20260504201121 | 70 | 215 | 5.2 | 10.4 | 0.00 | 0.00 | 0.00 | 35 | 1008.4 |
| 20260504200121 | 71 | 225 | 2.6 | 9.6 | 0.00 | 0.00 | 0.00 | 38 | 1008.7 |
| 20260504195121 | 71 | 219 | 5.2 | 11.3 | 0.00 | 0.00 | 0.00 | 35 | 1008.7 |
| 20260504194121 | 71 | 237 | 3.5 | 6.1 | 0.00 | 0.00 | 0.00 | 34 | 1008.8 |
| 20260504193142 | 71 | 244 | 2.6 | 7.8 | 0.00 | 0.00 | 0.00 | 35 | 1008.9 |
| 20260504192121 | 71 | 201 | 4.3 | 11.3 | 0.00 | 0.00 | 0.00 | 36 | 1009.1 |
| 20260504191142 | 71 | 262 | 4.3 | 9.6 | 0.00 | 0.00 | 0.00 | 34 | 1009.4 |
| 20260504190121 | 70 | 207 | 2.6 | 4.3 | 0.00 | 0.00 | 0.00 | 35 | 1009.2 |
| 20260504185142 | 71 | 187 | 3.5 | 8.7 | 0.00 | 0.00 | 0.00 | 35 | 1009.4 |
| 20260504184121 | 71 | 251 | 4.3 | 8.7 | 0.00 | 0.00 | 0.00 | 34 | 1009.3 |
| 20260504183142 | 71 | 247 | 3.5 | 9.6 | 0.00 | 0.00 | 0.00 | 36 | 1009.5 |
| 20260504182121 | 70 | 236 | 4.3 | 9.6 | 0.00 | 0.00 | 0.00 | 34 | 1009.6 |
| 20260504181121 | 69 | 201 | 4.3 | 8.7 | 0.00 | 0.00 | 0.00 | 35 | 1009.9 |
| 20260504180121 | 69 | 220 | 4.3 | 10.4 | 0.00 | 0.00 | 0.00 | 34 | 1010.1 |
| 20260504175121 | 69 | 247 | 4.3 | 10.4 | 0.00 | 0.00 | 0.00 | 34 | 1010.2 |
| 20260504174121 | 69 | 232 | 3.5 | 12.2 | 0.00 | 0.00 | 0.00 | 35 | 1010.3 |
| 20260504173121 | 68 | 187 | 4.3 | 8.7 | 0.00 | 0.00 | 0.00 | 35 | 1010.4 |
| 20260504172121 | 69 | 231 | 3.5 | 8.7 | 0.00 | 0.00 | 0.00 | 35 | 1010.5 |
| 20260504171121 | 68 | 260 | 5.2 | 8.7 | 0.00 | 0.00 | 0.00 | 34 | 1010.9 |
| 20260504170121 | 69 | 252 | 2.6 | 6.1 | 0.00 | 0.00 | 0.00 | 36 | 1010.9 |
| 20260504160121 | 67 | 229 | 4.3 | 11.3 | 0.00 | 0.00 | 0.00 | 35 | 1011.5 |
| 20260504151121 | 65 | 277 | 3.5 | 7.8 | 0.00 | 0.00 | 0.00 | 37 | 1012.0 |
| 20260504150121 | 65 | 262 | 4.3 | 8.7 | 0.00 | 0.00 | 0.00 | 36 | 1012.0 |
| 20260504141121 | 62 | 251 | 2.6 | 6.1 | 0.00 | 0.00 | 0.00 | 46 | 1012.1 |
| 20260504140142 | 61 | 260 | 4.3 | 7.8 | 0.00 | 0.00 | 0.00 | 47 | 1012.1 |
| 20260504130121 | 57 | 198 | 2.6 | 7.0 | 0.00 | 0.00 | 0.00 | 58 | 1012.6 |
| 20260504120121 | 54 | 62 | 0.9 | 1.7 | 0.00 | 0.00 | 0.00 | 58 | 1012.8 |
| 20260504110143 | 46 | 144 | 1.7 | 2.6 | 0.00 | 0.00 | 0.00 | 62 | 1013.0 |